Ogden, UT

8:54 AM MST on December 16, 2017 (GMT -0700)
Ogden-Hinckley

Weather History for KOGD - September, 2013

Change the Weather History Date:

Friday, September 6, 2013

  Actual Average Record
Temperature  
Mean Temperature 81 °F -  
Max Temperature 91 °F 83 °F 96 °F (1955)
Min Temperature 71 °F 52 °F 41 °F (1948)
Cooling Degree Days 16    
Growing Degree Days 31 (Base 50)    
Moisture  
Dew Point 49 °F    
Average Humidity 38    
Maximum Humidity 55    
Minimum Humidity 22    
Precipitation  
Precipitation 0.00 in - - ()
Sea Level Pressure  
Sea Level Pressure 29.91 in    
Wind  
Wind Speed 10 mph (SSW)    
Max Wind Speed 18 mph    
Max Gust Speed 32 mph    
Visibility 10 miles    
Events Rain    
Averages and records for this station are not official NWS values.
T = Trace of Precipitation, MM = Missing Value Source: NWS Daily Summary

Daily Weather History Graph

Daily Weather History Graph

Search for Another Location

Airport or City:

Trip Planner

Search our weather history database for the weather conditions in past years. The results will help you decide how hot, cold, wet, or windy it might be!

Date:

Astronomy

Sep. 06, 2013 Rise Set
Actual Time 6:59 AM MDT 7:51 PM MDT
Civil Twilight 6:31 AM MDT 8:19 PM MDT
Nautical Twilight 5:58 AM MDT 8:53 PM MDT
Astronomical Twilight 5:23 AM MDT 9:27 PM MDT
Moon 8:17 AM MDT (9/6) 8:16 PM MDT (9/6)
Length of Visible Light 13h 48m
Length of Day
12h 52m
New Moon, 2% of the Moon is Illuminated
Sep 6
New Moon
Sep 12
First Quarter
Sep 19
Full
Sep 26
Last Quarter
Oct 4
New

Hourly Weather History & Observations

Time (MDT) Temp. Dew Point Humidity Pressure Visibility Wind Dir Wind Speed Gust Speed Precip Events Conditions
12:53 AM 73.9 °F 48.9 °F 41% 29.88 in 10.0 mi South 10.4 mph - N/A   Clear
1:53 AM 73.9 °F 48.0 °F 40% 29.89 in 10.0 mi South 10.4 mph - N/A   Clear
2:53 AM 73.9 °F 46.9 °F 38% 29.89 in 10.0 mi South 12.7 mph - N/A   Scattered Clouds
3:53 AM 73.9 °F 48.0 °F 40% 29.90 in 10.0 mi South 11.5 mph - N/A   Overcast
4:53 AM 72.0 °F 48.0 °F 43% 29.90 in 10.0 mi SSE 12.7 mph - N/A   Scattered Clouds
5:53 AM 72.0 °F 48.0 °F 43% 29.90 in 10.0 mi South 11.5 mph - N/A   Partly Cloudy
6:53 AM 71.1 °F 48.0 °F 44% 29.91 in 10.0 mi South 12.7 mph - N/A   Clear
7:53 AM 73.0 °F 48.0 °F 41% 29.92 in 10.0 mi South 10.4 mph - N/A   Clear
8:53 AM 75.9 °F 48.9 °F 38% 29.94 in 10.0 mi SSE 6.9 mph - N/A   Clear
9:53 AM 80.1 °F 48.9 °F 34% 29.94 in 10.0 mi SSE 6.9 mph - N/A   Clear
10:53 AM 86.0 °F 48.9 °F 28% 29.94 in 10.0 mi SSW 11.5 mph - N/A   Clear
11:53 AM 88.0 °F 48.0 °F 25% 29.93 in 10.0 mi SSW 12.7 mph - N/A   Clear
12:53 PM 89.1 °F 46.0 °F 22% 29.92 in 10.0 mi SW 8.1 mph - 0.00 in   Clear
1:53 PM 91.0 °F 46.9 °F 22% 29.88 in 10.0 mi WSW 4.6 mph - 0.00 in   Clear
2:53 PM 88.0 °F 48.9 °F 26% 29.86 in 10.0 mi West 12.7 mph 24.2 mph N/A   Partly Cloudy
3:53 PM 88.0 °F 48.0 °F 25% 29.85 in 10.0 mi NW 5.8 mph - N/A   Clear
4:53 PM 91.0 °F 48.0 °F 23% 29.83 in 10.0 mi North 4.6 mph - N/A   Clear
5:53 PM 79.0 °F 53.1 °F 40% 29.88 in 10.0 mi NW 18.4 mph 32.2 mph N/A   Scattered Clouds
6:11 PM 78.8 °F 51.8 °F 39% 30.09 in 10.0 mi NNW 18.4 mph 28.8 mph N/A   Partly Cloudy
6:53 PM 75.0 °F 50.0 °F 41% 29.90 in 10.0 mi North 15.0 mph 23.0 mph N/A   Clear
7:53 PM 75.0 °F 48.9 °F 40% 29.92 in 10.0 mi NW 4.6 mph - N/A   Clear
8:53 PM 73.0 °F 52.0 °F 48% 29.94 in 10.0 mi NW 9.2 mph - 0.00 in Rain Light Rain
9:53 PM 73.0 °F 53.1 °F 49% 29.92 in 10.0 mi East 3.5 mph - 0.00 in   Clear
10:53 PM 71.1 °F 53.1 °F 53% 29.93 in 10.0 mi SW 6.9 mph - N/A   Clear
11:53 PM 71.1 °F 54.0 °F 55% 29.94 in 10.0 mi Variable 5.8 mph - N/A   Mostly Cloudy